User: anonymous   Login
Location: New Plymouth
(39.0670°S, 174.0830°E)
Time: 19:49:22
(UTC+13:00)
Language:

Cosmos 2181 Rocket - Orbit

View from above orbital plane
View from above orbital plane
View from above satellite
View from above satellite

Ground track
Ground track

The orbit data is extracted from the following two-line orbital elements,

1 21903U 92012B   19320.16814675  .00000076  00000-0  63124-4 0  9995
2 21903  82.9379 250.3869 0043250 152.2564 320.9883 13.74507766388724
Epoch (UTC): 16 November 2019 04:02:07
Eccentricity: 0.0043250
inclination: 82.9379°
perigee height: 951 km
apogee height: 1015 km
right ascension of ascending node: 250.3869°
argument of perigee: 152.2564°
revolutions per day: 13.74507766
mean anomaly at epoch: 320.9883°
orbit number at epoch: 38872

The dashed part of the orbit path shows where the satellite is in the earth's shadow,  

DLR